[[{"header":{"parameterUnit":"m.s-1","parameterCategory":1,"la1":30.2991,"la2":30.254,"lo1":-89.0895,"lo2":-89.0444,"dy":0.0017,"dx":0.0017,"nx":28,"ny":28,"refTime":"2023-10-30T21:00:00:Z","depth":0,"parameterNumber":2,"parameterNumberName":"U-component_of_WINDS"},"data":[0,0,0,0,0,0,0,0,0,0,0,0,0,0,0,0,0,0,0,0,0,0,0,0,0,0,0,0,0,0,0,0,0,0,0,0,0,0,0,0,0,0,0,0,0,0,0,0,0,0,0,0,0,0,0,0,0,0,-2.0144,-2.0145,0,-2.0234,-2.0235,-2.0236,-2.0175,-2.0172,-2.0169,-2.0167,-2.026,-2.0265,-2.027,0,0,0,0,0,0,0,0,0,0,0,0,0,-1.9918,-1.9922,-2.0144,-2.0145,-2.0146,-2.0234,-2.0235,-2.0237,-2.0175,-2.0172,-2.0169,-2.0165,-2.0259,-2.0265,-2.0271,0,0,0,0,0,0,0,0,0,0,0,0,0,-2.0013,-1.9923,-2.0144,-2.0126,-2.0125,-2.0234,-2.0235,-2.0237,-2.0176,-2.0172,-2.0168,-2.0164,-2.0257,-2.0264,-2.0272,-2.0403,0,0,-2.0295,-2.0298,0,0,0,0,0,0,0,0,-2.0007,-2.0021,-2.0127,-2.0127,-2.0127,-2.0189,-2.019,-2.0293,-2.0177,-2.0157,-2.0167,-2.0162,-2.024,-2.0249,-2.0275,-2.0407,-2.0411,-2.0296,-2.03,-2.0304,-2.0306,0,0,0,0,0,0,0,-2.0001,-2.0017,-2.018,-2.0129,-2.0129,-2.0113,-2.0122,-2.0209,-2.0221,-2.0158,-2.0154,-2.0166,-2.0239,-2.0268,-2.0277,-2.0413,-2.0296,-2.0302,-2.0307,-2.031,-2.0656,-2.066,0,0,0,0,0,0,-1.9996,-2.0012,-2.0177,-2.0182,-2.0056,-2.0121,-2.0131,-2.0173,-2.022,-2.0223,-2.0169,-2.0162,-2.0257,-2.0268,-2.028,-2.0436,-2.0304,-2.0311,-2.0315,-2.0651,-2.0657,-2.0662,0,0,0,0,0,0,-1.9991,-2.0011,-2.0173,-2.0096,-2.0115,-2.0129,-2.0177,-2.0177,-2.0206,-2.0228,-2.023,-2.0196,-2.0254,-2.0269,-2.0372,-2.0439,-2.0314,-2.0321,-2.0646,-2.0653,-2.0659,-2.0751,0,0,0,0,0,0,-1.9985,-2.001,-2.006,-2.0097,-2.012,-2.0265,-2.0181,-2.0182,-2.0219,-2.0211,-2.0254,-2.0257,-2.0252,-2.0361,-2.038,-2.0447,-2.0327,-2.064,-2.0649,-2.0657,-2.0742,-2.076,-2.0775,0,0,0,0,0,-1.9977,-2.0083,-2.0063,-2.0083,-2.0183,-2.0269,-2.0281,-2.0273,-2.0225,-2.0275,-2.0289,-2.0256,-2.0428,-2.0372,-2.0393,-2.0463,-2.0636,-2.0646,-2.0656,-2.0734,-2.0756,-2.0775,0,0,0,0,0,0,-2.0054,-2.0087,-2.0066,-2.0187,-2.0225,-2.0258,-2.0322,-2.0297,-2.035,-2.034,-2.0328,-2.0338,-2.0446,-2.0464,-2.0402,-2.0592,-2.0524,-2.0539,-2.0577,-2.0598,-2.0614,-2.0608,-2.0334,0,0,0,0,0,-2.0085,-2.0151,-2.0177,-2.0281,-2.0301,-2.0308,-2.0345,-2.0335,-2.0375,-2.0391,-2.0412,-2.0452,-2.0515,-2.0557,-2.0616,-2.0743,-2.0752,-2.0801,-2.0818,-2.0832,-2.0846,-2.0914,-2.0936,-2.0695,-2.0695,-2.0695,0,0,-2.015,-2.0176,-2.0219,-2.0297,-2.0326,-2.0395,-2.0323,-2.0399,-2.0451,-2.0403,-2.0502,-2.0518,-2.0562,-2.0678,-2.073,-2.0696,-2.0913,-2.0845,-2.0856,-2.0862,-2.0927,-2.0949,-2.097,-2.0702,-2.0701,-2.07,0,0,-2.0303,-2.033,-2.042,-2.0449,-2.0493,-2.0496,-2.0518,-2.0554,-2.0563,-2.0662,-2.0627,-2.0687,-2.0796,-2.0828,-2.0859,-2.1022,-2.0994,-2.1042,-2.113,-2.1197,-2.1216,-2.1232,-2.1291,-2.1313,-2.1055,-2.1055,-2.1055,0,-2.0379,-2.0482,-2.0469,-2.0548,-2.0583,-2.0541,-2.0632,-2.0661,-2.0723,-2.0748,-2.0709,-2.0844,-2.087,-2.0993,-2.1032,-2.1058,-2.1082,-2.1038,-2.1214,-2.1231,-2.1246,-2.1302,-2.1324,-2.1061,-2.106,-2.106,-2.1059,0,-2.0573,-2.0645,-2.0712,-2.0771,-2.0813,-2.0898,-2.0897,-2.0942,-2.0927,-2.0935,-2.1035,-2.1064,-2.1128,-2.1156,-2.1143,-2.1277,-2.1255,-2.1215,-2.1147,-2.1275,-2.1327,-2.1349,-2.1069,-2.1067,-2.1065,-2.1064,0,0,-2.0781,-2.083,-2.0855,-2.0881,-2.0925,-2.098,-2.1062,-2.1124,-2.1162,-2.1205,-2.1273,-2.1365,-2.1328,-2.1363,-2.1353,-2.1411,-2.1539,-2.1364,-2.1365,-2.1396,-2.1688,-2.1719,-2.1744,-2.1519,-2.1523,-2.1526,-2.1684,0,-2.0938,-2.1081,-2.107,-2.1205,-2.1271,-2.1231,-2.1302,-2.1337,-2.1345,-2.1402,-2.1411,-2.1477,-2.1423,-2.1443,-2.1499,-2.1511,-2.1597,-2.1499,-2.1583,-2.1586,-2.1575,-2.1771,-2.1804,-2.1953,-2.1705,-2.1708,-2.1711,0,-2.1141,-2.119,-2.1332,-2.1365,-2.1392,-2.1456,-2.1511,-2.1566,-2.1604,-2.1606,-2.1643,-2.1623,-2.1705,-2.1633,-2.1745,-2.1679,-2.1712,-2.1723,-2.1728,-2.1738,-2.1658,-2.1787,-2.2,-2.2023,-2.1743,-2.174,-2.1738,0,-2.128,-2.1381,-2.1479,-2.1502,-2.1542,-2.1588,-2.1607,-2.1641,-2.1678,-2.1726,-2.175,-2.1807,-2.1839,-2.1883,-2.1878,-2.1826,-2.1992,-2.192,-2.1997,-2.1997,-2.2036,-2.2034,-2.2259,-2.2054,-2.2054,-2.2053,-2.2053,0,-2.1458,-2.1546,-2.1541,-2.1602,-2.1699,-2.1685,-2.1782,-2.1795,-2.1825,-2.1887,-2.1855,-2.1914,-2.1902,-2.1961,-2.1957,-2.2051,-2.2065,-2.2069,-2.2067,-2.2073,-2.2073,-2.2096,-2.2086,-2.2059,-2.2058,-2.2057,-2.2056,0,-2.163,-2.1631,-2.1734,-2.1763,-2.1773,-2.1843,-2.1868,-2.1925,-2.1929,-2.2008,-2.2025,-2.2033,-2.2099,-2.2098,-2.2174,-2.2171,-2.2287,-2.2273,-2.2275,-2.2272,-2.2349,-2.2343,-2.2599,-2.2632,-2.2404,-2.2407,-2.2408,0,-2.1745,-2.1812,-2.1848,-2.1887,-2.1908,-2.1972,-2.2009,-2.1997,-2.2038,-2.2084,-2.2135,-2.2199,-2.2249,-2.2358,-2.237,-2.2428,-2.2415,-2.2501,-2.2424,-2.2427,-2.2418,-2.2415,-2.2421,-2.2517,-2.2519,-2.2521,-2.2523,0,-2.1949,-2.1945,-2.2,-2.2056,-2.2101,-2.2144,-2.2184,-2.2217,-2.2209,-2.2256,-2.2324,-2.2363,-2.244,-2.2504,-2.2558,-2.2577,-2.255,-2.2546,-2.2568,-2.2575,-2.2574,-2.2577,-2.2318,-2.2541,-2.254,-2.2538,-2.2537,-2.2537,-2.2097,-2.2154,-2.2188,-2.225,-2.2278,-2.2315,-2.237,-2.238,-2.2437,-2.2498,-2.2487,-2.2563,-2.2597,-2.2668,-2.2691,-2.275,-2.272,-2.275,-2.2758,-2.2766,-2.2775,-2.2563,-2.276,-2.2759,-2.2759,-2.2758,-2.2758,0,-2.2299,-2.2318,-2.2376,-2.2432,-2.2481,-2.2448,-2.2489,-2.2533,-2.26,-2.2634,-2.2683,-2.2761,-2.2821,-2.2837,-2.2896,-2.294,-2.2928,-2.2956,-2.2953,-2.2958,-2.2798,-2.2775,-2.2964,-2.2964,-2.2964,-2.2964,-2.2964,-2.2964,-2.2411,-2.2506,-2.2506,-2.2614,-2.2632,-2.2707,-2.2733,-2.2767,-2.2794,-2.2881,-2.2931,-2.2941,-2.2967,-2.3027,-2.3081,-2.3084,-2.3107,-2.314,-2.3138,-2.299,-2.2969,-2.295,-2.2928,-2.3145,-2.3145,-2.3293,-2.3294,-2.3295]},{"header":{"parameterUnit":"m.s-1","parameterCategory":1,"la1":30.2991,"la2":30.254,"lo1":-89.0895,"lo2":-89.0444,"dy":0.0017,"dx":0.0017,"nx":28,"ny":28,"refTime":"2023-10-30T21:00:00:Z","depth":0,"parameterNumber":3,"parameterNumberName":"V-component_of_WINDS"},"data":[0,0,0,0,0,0,0,0,0,0,0,0,0,0,0,0,0,0,0,0,0,0,0,0,0,0,0,0,0,0,0,0,0,0,0,0,0,0,0,0,0,0,0,0,0,0,0,0,0,0,0,0,0,0,0,0,0,0,-9.3513,-9.3515,0,-9.3685,-9.3687,-9.3689,-9.3569,-9.3564,-9.3558,-9.3553,-9.3722,-9.3731,-9.3741,0,0,0,0,0,0,0,0,0,0,0,0,0,-9.3071,-9.308,-9.3513,-9.3515,-9.3517,-9.3685,-9.3687,-9.369,-9.357,-9.3563,-9.3557,-9.3551,-9.3719,-9.373,-9.3742,0,0,0,0,0,0,0,0,0,0,0,0,0,-9.3255,-9.3083,-9.3513,-9.3478,-9.3477,-9.3685,-9.3688,-9.369,-9.3571,-9.3563,-9.3555,-9.3548,-9.3715,-9.3729,-9.3743,-9.3993,0,0,-9.3787,-9.3793,0,0,0,0,0,0,0,0,-9.3245,-9.3272,-9.3481,-9.3481,-9.348,-9.3598,-9.3594,-9.3791,-9.3573,-9.3535,-9.3553,-9.3544,-9.3687,-9.3703,-9.3752,-9.4,-9.4008,-9.3788,-9.3797,-9.3803,-9.3807,0,0,0,0,0,0,0,-9.3233,-9.3264,-9.3581,-9.3484,-9.3483,-9.3451,-9.3468,-9.3631,-9.3654,-9.3538,-9.353,-9.3552,-9.3685,-9.3739,-9.3756,-9.401,-9.3788,-9.38,-9.3809,-9.3815,-9.4469,-9.4477,0,0,0,0,0,0,-9.3224,-9.3254,-9.3575,-9.3586,-9.334,-9.3465,-9.3485,-9.3568,-9.3652,-9.3657,-9.3559,-9.3546,-9.3719,-9.3739,-9.3761,-9.4057,-9.3803,-9.3816,-9.3824,-9.446,-9.4471,-9.448,0,0,0,0,0,0,-9.3215,-9.3254,-9.3568,-9.3418,-9.3455,-9.3482,-9.3576,-9.3575,-9.363,-9.3668,-9.367,-9.3611,-9.3713,-9.3741,-9.3936,-9.4062,-9.3822,-9.3835,-9.445,-9.4463,-9.4475,-9.4653,0,0,0,0,0,0,-9.3203,-9.3251,-9.3349,-9.3421,-9.3464,-9.3744,-9.3584,-9.3585,-9.3656,-9.364,-9.3717,-9.3722,-9.3709,-9.3915,-9.395,-9.4077,-9.3846,-9.4438,-9.4456,-9.4471,-9.4636,-9.4671,-9.4701,0,0,0,0,0,-9.3188,-9.3391,-9.3354,-9.3394,-9.3587,-9.3751,-9.3775,-9.3759,-9.3666,-9.3763,-9.3787,-9.3719,-9.4042,-9.3936,-9.3974,-9.4108,-9.443,-9.4451,-9.447,-9.4622,-9.4664,-9.47,0,0,0,0,0,0,-9.333,-9.3399,-9.336,-9.3593,-9.3668,-9.3731,-9.3852,-9.3804,-9.3904,-9.3886,-9.3858,-9.3876,-9.408,-9.4113,-9.3994,-9.4352,-9.4221,-9.425,-9.4324,-9.4364,-9.4396,-9.4383,-9.3858,0,0,0,0,0,-9.3389,-9.352,-9.3572,-9.3772,-9.3812,-9.3826,-9.3897,-9.3878,-9.3953,-9.3983,-9.4021,-9.4094,-9.4211,-9.4289,-9.44,-9.464,-9.4654,-9.475,-9.4782,-9.4809,-9.4833,-9.4961,-9.5004,-9.4545,-9.4545,-9.4545,0,0,-9.3511,-9.3565,-9.3649,-9.3803,-9.3858,-9.3991,-9.3853,-9.4,-9.4098,-9.4004,-9.4191,-9.4222,-9.4301,-9.452,-9.4618,-9.4553,-9.4963,-9.4834,-9.4855,-9.4865,-9.4986,-9.5029,-9.5068,-9.4559,-9.4556,-9.4554,0,0,-9.3802,-9.3858,-9.403,-9.4089,-9.4175,-9.4183,-9.4224,-9.4295,-9.4313,-9.45,-9.4432,-9.4546,-9.475,-9.4809,-9.4866,-9.5178,-9.5119,-9.5214,-9.5382,-9.5507,-9.5543,-9.5575,-9.5685,-9.5725,-9.5239,-9.5239,-9.524,0,-9.3943,-9.4144,-9.4124,-9.4277,-9.4345,-9.4268,-9.4441,-9.4498,-9.4615,-9.4663,-9.4589,-9.4843,-9.4891,-9.5121,-9.5198,-9.5246,-9.5291,-9.5205,-9.554,-9.5572,-9.5601,-9.5706,-9.5747,-9.525,-9.5249,-9.5248,-9.5247,0,-9.4311,-9.4452,-9.458,-9.4698,-9.478,-9.4942,-9.4944,-9.503,-9.5003,-9.5017,-9.5208,-9.5263,-9.5382,-9.5435,-9.541,-9.5662,-9.5619,-9.5544,-9.5412,-9.5656,-9.5754,-9.5794,-9.5266,-9.5262,-9.5259,-9.5256,0,0,-9.4698,-9.4802,-9.485,-9.4902,-9.4991,-9.5097,-9.5254,-9.5373,-9.5446,-9.5529,-9.5658,-9.5832,-9.5763,-9.5827,-9.5807,-9.5917,-9.6159,-9.5827,-9.5828,-9.5886,-9.6438,-9.6494,-9.6541,-9.612,-9.6128,-9.6134,-9.6431,0,-9.4993,-9.527,-9.5256,-9.5515,-9.5642,-9.5571,-9.5707,-9.5775,-9.5792,-9.5901,-9.5918,-9.6042,-9.5941,-9.5979,-9.6085,-9.6107,-9.6269,-9.6086,-9.6238,-9.6244,-9.622,-9.6593,-9.6653,-9.6931,-9.6469,-9.6476,-9.648,0,-9.5375,-9.5473,-9.5745,-9.5814,-9.5867,-9.5991,-9.6098,-9.6203,-9.6277,-9.6282,-9.6354,-9.6316,-9.6471,-9.6336,-9.6548,-9.6424,-9.6485,-9.6505,-9.6515,-9.6528,-9.6377,-9.6615,-9.7019,-9.7061,-9.6541,-9.6536,-9.6532,0,-9.5628,-9.5828,-9.6016,-9.6063,-9.6148,-9.6236,-9.6275,-9.6342,-9.6414,-9.6507,-9.6553,-9.6662,-9.6721,-9.6805,-9.6796,-9.6698,-9.7011,-9.6875,-9.7017,-9.7018,-9.7086,-9.7082,-9.7505,-9.7127,-9.7127,-9.7126,-9.7125,0,-9.5959,-9.6128,-9.6131,-9.6247,-9.6433,-9.6414,-9.6597,-9.6626,-9.6686,-9.6804,-9.6747,-9.6859,-9.684,-9.6951,-9.6944,-9.712,-9.7147,-9.7153,-9.7149,-9.7159,-9.7158,-9.7198,-9.7178,-9.7137,-9.7134,-9.7132,-9.713,0,-9.6274,-9.6283,-9.6483,-9.6548,-9.6568,-9.6702,-9.6756,-9.6864,-9.6876,-9.7026,-9.706,-9.7079,-9.7206,-9.7205,-9.7349,-9.7344,-9.756,-9.7534,-9.7536,-9.7531,-9.7673,-9.7659,-9.8136,-9.8197,-9.778,-9.7784,-9.7788,0,-9.6484,-9.6613,-9.6692,-9.6768,-9.6813,-9.6937,-9.701,-9.6995,-9.7074,-9.7168,-9.7264,-9.7386,-9.7483,-9.7688,-9.7713,-9.7822,-9.7798,-9.7958,-9.7814,-9.7819,-9.7799,-9.7792,-9.7804,-9.7986,-9.799,-9.7994,-9.7997,0,-9.6856,-9.6854,-9.6964,-9.7077,-9.7167,-9.7253,-9.7333,-9.7398,-9.7391,-9.7482,-9.7612,-9.7688,-9.7836,-9.7957,-9.8062,-9.8098,-9.8047,-9.8042,-9.8081,-9.8091,-9.8087,-9.809,-9.7612,-9.8031,-9.8028,-9.8026,-9.8024,-9.8022,-9.7125,-9.7235,-9.7308,-9.7432,-9.7491,-9.7566,-9.7671,-9.7697,-9.7807,-9.7928,-9.7911,-9.8056,-9.8124,-9.8261,-9.8307,-9.8418,-9.8362,-9.8418,-9.8432,-9.8446,-9.8461,-9.807,-9.8437,-9.8436,-9.8435,-9.8434,-9.8434,0,-9.7493,-9.7536,-9.7651,-9.7765,-9.7862,-9.7807,-9.7892,-9.7976,-9.8105,-9.8175,-9.8272,-9.8421,-9.8537,-9.8572,-9.8684,-9.8766,-9.8745,-9.8796,-9.8789,-9.8798,-9.8506,-9.8461,-9.8811,-9.8811,-9.8811,-9.8811,-9.8811,-9.881,-9.7696,-9.788,-9.7887,-9.8098,-9.8138,-9.8283,-9.8336,-9.8404,-9.8459,-9.8629,-9.8727,-9.8749,-9.8804,-9.8919,-9.9023,-9.9029,-9.9073,-9.9133,-9.913,-9.8857,-9.8819,-9.8783,-9.874,-9.9143,-9.9144,-9.9413,-9.9416,-9.9418]}]]